QPF
0.00 0.00 0.00 0.00 0.00 0.00 0.00 0.00 0.00 0.00 0.00 0.00 0.00 0.00 0.00 0.00 0.00 0.00 0.00 0.00 0.00 0.00 0.00 0.00 0.00 0.00 0.00 0.00 0.00 0.00 0.00 0.00 0.00 0.00 0.00 0.00 0.00 0.00 0.00 0.00 0.00 0.00 0.00 0.00
0.00 0.00 0.00 0.00 0.00 0.00 0.00 0.00 0.00 0.00 0.00 0.00 0.00 0.00 0.00 0.00 0.00 0.00 0.00 0.00 0.00 0.00 0.00 0.00 0.00 0.00 0.00 0.00 0.00 0.00 0.00 0.00 0.00 0.00 0.00 0.00 0.00 0.00 0.00 0.00 0.00 0.00 0.00 0.00
0.00 0.00 0.00 0.00 0.00 0.00 0.00 0.00 0.00 0.00 0.00 0.00 0.00 0.00 0.00 0.00 0.00 0.00 0.00 0.00 0.00 0.00 0.00 0.00 0.00 0.00 0.00 0.00 0.00 0.00 0.00 0.00 0.00 0.00 0.00 0.00 0.00 0.00 0.00 0.00 0.00 0.00 0.00 0.00
0.00 0.00 0.00 0.00 0.00 0.00 0.00 0.00 0.00 0.00 0.00 0.00 0.00 0.00 0.00 0.00 0.00 0.00 0.00 0.00 0.00 0.00 0.00 0.00 0.00 0.00 0.00 0.00 0.00 0.00 0.00 0.00 0.00 0.00 0.00 0.00 0.00 0.00 0.00 0.00 0.00 0.00 0.00 0.00
0.00 0.00 0.00 0.00 0.00 0.00 0.00 0.00 0.00 0.00 0.00 0.00 0.00 0.00 0.00 0.00 0.00 0.00 0.00 0.00 0.00 0.00 0.00 0.00 0.00 0.00 0.00 0.00 0.00 0.00 0.00 0.00 0.00 0.00 0.00 0.00 0.00 0.00 0.00 0.00 0.00 0.00 0.00 0.00
0.00 0.00 0.00 0.00 0.00 0.00 0.00 0.00 0.00 0.00 0.00 0.00 0.00 0.00 0.00 0.00 0.00 0.00 0.00 0.00 0.00 0.00 0.00 0.00 0.00 0.00 0.00 0.00 0.00 0.00 0.00 0.00 0.00 0.00 0.00 0.00 0.00 0.00 0.00 0.00 0.00 0.00 0.00 0.00
0.00 0.00 0.00 0.00 0.00 0.00 0.00 0.00 0.00 0.00 0.00 0.00 0.00 0.00 0.00 0.00 0.00 0.00 0.00 0.00 0.00 0.00 0.00 0.00 0.00 0.00 0.00 0.00 0.00 0.00 0.00 0.00 0.00 0.00 0.00 0.00 0.00 0.00 0.00 0.00 0.00 0.00 0.00 0.00
0.00 0.00 0.00 0.00 0.00 0.00 0.00 0.00 0.00 0.00 0.00 0.00 0.00 0.00 0.00 0.00 0.00 0.00 0.00 0.00 0.00 0.00 0.00 0.00 0.00 0.00 0.00 0.00 0.00 0.00 0.00 0.00 0.00 0.00 0.00 0.00 0.00 0.00 0.00 0.00 0.00 0.00 0.00 0.00
0.00 0.00 0.00 0.00 0.00 0.00 0.00 0.00 0.00 0.00 0.00 0.00 0.00 0.00 0.00 0.00 0.00 0.00 0.00 0.00 0.00 0.00 0.00 0.00 0.00 0.00 0.00 0.00 0.00 0.00 0.00 0.00 0.00 0.00 0.00 0.00 0.00 0.00 0.00 0.00 0.00 0.00 0.00 0.01
0.00 0.00 0.00 0.00 0.00 0.00 0.00 0.00 0.00 0.00 0.00 0.00 0.00 0.00 0.00 0.00 0.00 0.00 0.00 0.00 0.00 0.00 0.00 0.00 0.00 0.00 0.00 0.00 0.00 0.00 0.00 0.00 0.00 0.00 0.00 0.00 0.00 0.00 0.00 0.00 0.00 0.00 0.00 0.00
0.00 0.00 0.00 0.00 0.00 0.00 0.00 0.00 0.00 0.00 0.00 0.00 0.00 0.00 0.00 0.00 0.00 0.00 0.00 0.00 0.00 0.00 0.00 0.00 0.00 0.00 0.00 0.00 0.00 0.00 0.00 0.00 0.00 0.00 0.00 0.00 0.00 0.00 0.00 0.00 0.00 0.00 0.00 0.02
0.00 0.00 0.00 0.00 0.00 0.00 0.00 0.00 0.00 0.00 0.00 0.00 0.00 0.00 0.00 0.00 0.00 0.00 0.00 0.00 0.00 0.00 0.00 0.00 0.00 0.00 0.00 0.00 0.00 0.00 0.00 0.00 0.00 0.00 0.00 0.00 0.00 0.00 0.00 0.00 0.00 0.00 0.00 0.00
0.00 0.00 0.00 0.00 0.00 0.00 0.00 0.00 0.00 0.00 0.00 0.00 0.00 0.00 0.00 0.00 0.00 0.00 0.00 0.00 0.00 0.00 0.00 0.00 0.00 0.00 0.00 0.00 0.00 0.00 0.00 0.00 0.00 0.00 0.00 0.00 0.00 0.00 0.00 0.00 0.00 0.00 0.02 0.02
0.00 0.00 0.00 0.00 0.00 0.00 0.00 0.00 0.00 0.00 0.00 0.00 0.00 0.00 0.00 0.00 0.00 0.00 0.00 0.00 0.00 0.00 0.00 0.00 0.00 0.00 0.00 0.00 0.00 0.00 0.00 0.00 0.00 0.00 0.00 0.00 0.00 0.00 0.00 0.00 0.00 0.00 0.00 0.00
0.00 0.00 0.00 0.00 0.00 0.00 0.00 0.00 0.00 0.00 0.00 0.00 0.00 0.00 0.00 0.00 0.00 0.00 0.00 0.00 0.00 0.00 0.00 0.00 0.00 0.00 0.00 0.00 0.00 0.00 0.00 0.00 0.00 0.00 0.00 0.00 0.00 0.00 0.00 0.00 0.00 0.00 0.00 0.00
0.00 0.00 0.00 0.00 0.00 0.00 0.00 0.00 0.00 0.00 0.00 0.00 0.00 0.00 0.00 0.00 0.00 0.00 0.00 0.00 0.00 0.00 0.00 0.00 0.00 0.00 0.00 0.00 0.00 0.00 0.00 0.00 0.00 0.00 0.00 0.00 0.00 0.00 0.00 0.00 0.00 0.00 0.00 0.00
0.00 0.00 0.00 0.00 0.00 0.00 0.00 0.00 0.00 0.00 0.00 0.00 0.00 0.00 0.00 0.00 0.00 0.00 0.00 0.00 0.00 0.00 0.00 0.00 0.00 0.00 0.00 0.00 0.00 0.00 0.00 0.00 0.00 0.00 0.00 0.00 0.00 0.00 0.00 0.00 0.00 0.00 0.00 0.00
0.00 0.00 0.00 0.00 0.00 0.00 0.00 0.00 0.00 0.00 0.00 0.00 0.00 0.00 0.00 0.00 0.00 0.00 0.00 0.00 0.00 0.00 0.00 0.00 0.00 0.00 0.00 0.00 0.00 0.00 0.00 0.00 0.00 0.00 0.00 0.00 0.00 0.00 0.00 0.00 0.00 0.00 0.00 0.00
0.00 0.00 0.00 0.00 0.00 0.00 0.00 0.00 0.00 0.00 0.00 0.00 0.00 0.00 0.00 0.00 0.00 0.00 0.00 0.00 0.00 0.00 0.00 0.00 0.00 0.00 0.00 0.00 0.00 0.00 0.00 0.00 0.00 0.00 0.00 0.00 0.00 0.00 0.00 0.00 0.00 0.00 0.00 0.00
0.00 0.00 0.00 0.00 0.00 0.00 0.00 0.00 0.00 0.00 0.00 0.00 0.00 0.00 0.00 0.00 0.00 0.00 0.00 0.00 0.00 0.00 0.00 0.00 0.00 0.00 0.00 0.00 0.00 0.00 0.00 0.00 0.00 0.00 0.00 0.00 0.00 0.00 0.00 0.00 0.00 0.00 0.00 0.00
0.00 0.00 0.00 0.00 0.00 0.00 0.00 0.00 0.00 0.00 0.00 0.00 0.00 0.00 0.00 0.00 0.00 0.00 0.00 0.00 0.00 0.00 0.00 0.00 0.00 0.00 0.00 0.00 0.00 0.00 0.00 0.00 0.00 0.00 0.00 0.00 0.00 0.00 0.00 0.00 0.00 0.00 0.00 0.00
0.11 0.06 0.00 0.00 0.00 0.00 0.00 0.00 0.00 0.00 0.00 0.00 0.00 0.00 0.00 0.00 0.00 0.00 0.00 0.00 0.00 0.00 0.00 0.00 0.00 0.00 0.00 0.00 0.00 0.00 0.00 0.00 0.00 0.00 0.00 0.00 0.00 0.00 0.00 0.00 0.00 0.00 0.00 0.00
0.15 0.15 0.05 0.01 0.01 0.00 0.00 0.00 0.00 0.00 0.00 0.00 0.00 0.00 0.00 0.00 0.00 0.00 0.00 0.00 0.00 0.00 0.00 0.00 0.00 0.00 0.00 0.00 0.00 0.00 0.00 0.00 0.00 0.00 0.00 0.00 0.00 0.00 0.00 0.00 0.00 0.00 0.00 0.00
0.14 0.12 0.03 0.02 0.02 0.00 0.00 0.00 0.00 0.00 0.00 0.00 0.00 0.00 0.00 0.00 0.00 0.00 0.00 0.00 0.00 0.00 0.00 0.00 0.00 0.00 0.00 0.00 0.00 0.00 0.00 0.00 0.00 0.00 0.00 0.00 0.00 0.00 0.00 0.00 0.00 0.00 0.00 0.00
0.24 0.11 0.08 0.03 0.03 0.00 0.00 0.00 0.00 0.00 0.00 0.00 0.00 0.00 0.00 0.00 0.00 0.00 0.00 0.00 0.00 0.00 0.00 0.00 0.00 0.00 0.00 0.00 0.00 0.00 0.00 0.00 0.00 0.00 0.00 0.00 0.00 0.00 0.00 0.00 0.00 0.00 0.00 0.00
0.07 0.06 0.08 0.06 0.01 0.00 0.00 0.00 0.00 0.00 0.00 0.00 0.00 0.00 0.00 0.00 0.00 0.00 0.00 0.00 0.00 0.00 0.00 0.00 0.00 0.00 0.00 0.00 0.00 0.00 0.00 0.00 0.00 0.00 0.00 0.00 0.00 0.00 0.00 0.00 0.00 0.00 0.00 0.00
MSLP
1006.34 1006.71 1005.11 1005.67 1006.17 1006.54 1007.01 1007.31 1006.28 1005.00 1004.99 1004.78 1004.11 1003.45 1002.40 1001.56 1001.67 1001.38 1000.98 1001.09 1000.88 1001.37 1001.87 1002.47 1003.30 1003.93 1005.22 1006.11 1006.71 1007.05 1007.52 1007.76 1008.04 1008.18 1008.30 1008.22 1008.08 1007.86 1007.74 1007.76 1007.79 1007.67 1007.76 1007.91
1005.80 1002.91 1003.76 1005.07 1005.77 1006.20 1006.67 1006.64 1005.70 1004.80 1004.94 1004.84 1003.95 1003.41 1002.20 1001.18 1000.97 1000.61 1000.53 1000.44 1001.03 1001.77 1002.52 1002.89 1003.55 1004.51 1005.07 1006.06 1006.67 1006.98 1007.36 1007.76 1007.78 1007.89 1007.93 1007.95 1007.94 1007.72 1007.67 1007.64 1007.66 1007.53 1007.54 1007.61
1002.57 1000.68 1003.63 1004.18 1004.48 1005.39 1005.44 1005.70 1005.69 1005.00 1005.17 1004.72 1004.16 1003.18 1002.07 1000.50 1000.45 999.95 999.82 999.84 1000.34 1000.84 1002.02 1003.09 1003.86 1004.39 1005.63 1006.23 1006.42 1006.86 1007.32 1007.55 1007.54 1007.62 1007.75 1007.89 1007.78 1007.72 1007.77 1007.79 1007.59 1007.48 1007.40 1007.44
1002.57 1002.13 1002.09 1002.82 1002.95 1003.93 1004.34 1004.81 1004.95 1005.21 1005.69 1005.43 1004.17 1003.70 1002.24 1001.20 1000.61 1000.16 999.74 999.80 1000.12 1000.99 1002.20 1003.04 1003.95 1005.06 1005.58 1005.89 1006.28 1006.88 1007.27 1007.39 1007.44 1007.53 1007.81 1007.97 1008.11 1008.15 1008.11 1007.97 1007.65 1007.53 1007.33 1007.31
1000.56 1000.74 1001.56 1001.59 1001.34 1003.02 1003.00 1004.12 1004.89 1005.37 1005.53 1005.35 1004.59 1004.71 1001.93 1001.51 1000.92 1000.14 999.88 999.61 1000.35 1001.19 1002.18 1003.23 1003.99 1005.07 1005.48 1005.88 1006.43 1006.89 1007.21 1007.38 1007.43 1007.59 1007.79 1007.89 1007.99 1008.03 1008.15 1007.98 1007.70 1007.62 1007.44 1007.40
1000.28 999.93 1000.23 999.12 1001.00 1001.88 1003.10 1004.24 1005.04 1005.55 1006.03 1005.22 1003.97 1004.51 1001.74 1001.12 1000.16 999.52 999.30 999.80 1000.68 1001.50 1002.61 1003.66 1004.43 1005.10 1005.65 1006.08 1006.59 1006.94 1007.25 1007.42 1007.53 1007.66 1007.74 1007.82 1007.91 1008.03 1008.14 1007.96 1007.73 1007.73 1007.55 1007.52
1000.35 999.93 999.47 999.68 1000.79 1001.80 1002.91 1004.44 1006.12 1006.24 1006.07 1004.43 1003.25 1003.41 1000.76 999.65 999.18 998.96 999.29 1000.04 1001.04 1002.09 1002.81 1003.56 1004.41 1005.09 1005.68 1006.28 1006.76 1007.03 1007.26 1007.55 1007.64 1007.71 1007.70 1007.76 1007.85 1008.00 1008.05 1007.92 1007.75 1007.79 1007.70 1007.71
999.93 999.72 998.92 998.58 999.21 1000.43 1001.82 1003.12 1004.41 1005.25 1004.95 1003.87 1002.85 1001.60 998.96 998.20 997.98 998.26 998.98 999.84 1001.08 1002.13 1002.89 1003.60 1004.23 1004.99 1005.63 1006.22 1006.71 1006.90 1007.21 1007.58 1007.59 1007.61 1007.67 1007.66 1007.69 1007.94 1007.93 1007.74 1007.65 1007.71 1007.69 1007.61
999.92 998.96 997.83 998.20 998.62 999.46 1000.83 1001.51 1003.08 1004.09 1004.00 1003.52 1002.09 1000.18 998.55 997.96 998.28 998.55 999.18 999.97 1001.27 1002.01 1002.61 1003.42 1004.32 1004.88 1005.50 1006.08 1006.52 1006.72 1007.19 1007.42 1007.47 1007.50 1007.60 1007.67 1007.72 1007.82 1007.75 1007.58 1007.63 1007.62 1007.53 1007.55
999.73 999.16 997.84 997.07 997.90 998.03 998.88 1000.78 1002.73 1003.35 1003.59 1003.14 1001.60 1000.29 999.15 998.40 998.30 998.99 999.61 1000.44 1001.32 1002.17 1002.94 1003.57 1004.32 1004.82 1005.33 1005.83 1006.17 1006.65 1006.97 1007.17 1007.34 1007.43 1007.55 1007.65 1007.74 1007.75 1007.66 1007.57 1007.72 1007.57 1007.58 1007.48
1000.23 999.61 998.12 997.37 996.25 996.90 998.31 998.98 999.97 1001.46 1001.97 1001.87 1001.38 999.61 998.22 997.93 998.11 998.82 999.45 1000.23 1001.02 1001.79 1002.51 1003.39 1004.08 1004.60 1005.11 1005.73 1006.20 1006.65 1007.05 1007.18 1007.35 1007.43 1007.60 1007.70 1007.76 1007.86 1007.81 1007.74 1007.87 1007.69 1007.58 1007.63
1001.55 1000.16 998.80 997.14 996.19 996.25 997.08 998.17 998.65 999.67 1000.77 1000.81 1000.52 998.67 997.28 997.06 997.31 997.80 998.99 1000.04 1000.89 1001.57 1002.32 1003.22 1003.89 1004.53 1005.24 1005.77 1006.29 1006.66 1006.97 1007.08 1007.22 1007.34 1007.61 1007.79 1007.82 1008.01 1008.09 1007.96 1008.03 1007.92 1007.86 1007.76
1003.35 1001.01 999.89 998.21 996.97 996.09 995.88 996.11 997.17 998.47 999.55 999.75 999.82 997.83 996.86 997.01 997.22 997.96 998.76 999.78 1000.68 1001.44 1002.43 1003.13 1003.84 1004.55 1005.12 1005.64 1006.10 1006.50 1006.76 1006.91 1007.17 1007.36 1007.64 1007.93 1007.98 1008.20 1008.30 1008.15 1008.20 1008.16 1008.07 1008.11
1004.39 1002.89 1000.18 997.35 995.61 995.24 995.30 995.86 996.59 997.54 998.36 998.10 997.57 997.15 996.93 997.02 997.29 998.23 999.05 999.81 1000.30 1001.09 1002.02 1002.64 1003.54 1004.22 1004.67 1005.32 1005.77 1006.22 1006.62 1006.76 1007.08 1007.39 1007.70 1007.91 1008.08 1008.29 1008.32 1008.41 1008.46 1008.38 1008.31 1008.41
1005.20 1003.97 1001.49 998.66 996.89 995.76 995.03 995.13 995.63 995.74 996.11 996.84 996.42 996.67 996.26 996.41 996.82 997.38 998.22 999.54 1000.27 1000.97 1001.67 1002.16 1002.92 1003.72 1004.32 1004.99 1005.51 1005.93 1006.29 1006.67 1006.95 1007.36 1007.71 1007.92 1008.12 1008.24 1008.37 1008.65 1008.69 1008.68 1008.75 1008.87
1005.70 1004.58 1002.64 999.61 997.52 996.02 995.45 994.70 994.45 994.72 995.24 995.51 995.47 995.67 994.89 995.01 995.85 997.21 998.01 998.74 999.55 1000.10 1000.73 1001.42 1002.27 1003.09 1003.74 1004.36 1004.98 1005.59 1006.08 1006.44 1006.79 1007.29 1007.65 1007.92 1008.15 1008.33 1008.60 1008.82 1009.05 1009.18 1009.17 1009.32
1006.16 1005.28 1003.85 1000.50 998.07 996.91 995.88 993.44 993.71 993.70 993.78 993.94 994.65 994.41 994.52 995.24 995.71 996.45 997.27 997.77 998.17 998.97 999.77 1000.50 1001.27 1002.07 1002.95 1003.62 1004.24 1005.05 1005.72 1006.18 1006.65 1007.17 1007.57 1007.89 1008.17 1008.45 1008.76 1009.01 1009.30 1009.62 1009.70 1009.71
1005.67 1005.55 1005.04 1002.43 999.14 997.22 992.50 992.50 992.84 993.18 992.95 992.89 993.40 993.43 993.40 993.80 994.39 994.95 995.56 996.24 997.39 998.24 998.89 999.62 1000.38 1001.36 1002.18 1003.04 1003.80 1004.52 1005.30 1005.96 1006.53 1007.05 1007.46 1007.83 1008.13 1008.60 1008.92 1009.22 1009.56 1009.90 1010.12 1010.30
1004.73 1005.19 1004.91 1003.19 1000.14 995.98 993.62 992.28 992.02 992.56 992.91 992.57 992.98 992.80 992.93 993.04 994.13 995.01 995.09 995.39 995.65 996.49 997.27 998.25 999.42 1000.47 1001.64 1002.47 1003.34 1004.22 1005.13 1005.73 1006.33 1006.82 1007.21 1007.69 1008.05 1008.71 1009.16 1009.49 1009.85 1010.17 1010.33 1010.63
1003.26 1004.43 1004.58 1003.12 1001.16 997.64 996.13 994.02 992.00 992.40 993.17 992.50 992.68 992.94 992.98 993.47 994.34 994.31 994.38 995.00 995.58 996.28 996.88 997.82 998.98 1000.10 1001.07 1002.05 1002.94 1003.81 1004.72 1005.44 1006.00 1006.40 1006.78 1007.36 1007.88 1008.50 1009.15 1009.63 1010.04 1010.32 1010.56 1010.79
1004.59 1004.92 1004.66 1003.82 1002.07 998.74 997.84 995.81 993.86 994.08 995.21 994.21 993.35 992.43 992.68 992.73 992.38 992.57 993.02 993.97 994.45 995.01 996.17 997.46 998.39 999.36 1000.23 1001.43 1002.50 1003.38 1004.13 1004.77 1005.17 1005.93 1006.61 1007.13 1007.74 1008.24 1008.80 1009.52 1009.95 1010.48 1010.91 1011.12
1005.34 1005.30 1004.47 1003.85 1002.10 1000.09 998.39 996.23 997.05 998.16 996.21 995.35 993.92 992.73 991.91 991.41 991.63 992.05 992.28 993.08 993.94 994.87 996.08 997.08 998.08 998.83 999.84 1000.73 1001.80 1002.90 1003.40 1003.85 1004.82 1005.67 1006.43 1007.03 1007.55 1008.04 1008.71 1009.31 1009.97 1010.42 1010.92 1011.36
1005.95 1005.78 1004.97 1003.92 1001.81 1000.77 1000.30 1000.08 999.73 998.83 997.81 996.19 994.81 993.46 992.40 991.42 991.45 991.52 991.99 992.59 993.16 993.98 994.77 995.93 997.18 998.50 999.48 1000.17 1000.87 1002.00 1002.72 1003.58 1004.48 1005.36 1006.18 1006.82 1007.43 1007.96 1008.60 1009.23 1009.83 1010.49 1010.85 1011.31
1005.44 1005.45 1004.78 1003.89 1001.34 1001.02 1000.51 1000.09 999.55 998.85 997.91 996.34 994.75 993.56 992.10 991.27 990.86 991.04 991.30 991.99 992.74 993.47 994.60 995.46 996.73 997.94 998.96 999.71 1000.22 1000.73 1002.17 1003.00 1003.94 1004.95 1005.81 1006.57 1007.30 1007.93 1008.44 1009.02 1009.60 1010.12 1010.68 1011.16
1005.87 1005.38 1004.61 1003.57 1002.26 1001.11 1000.04 999.95 999.45 998.41 997.37 995.83 994.40 993.27 991.75 990.76 990.76 990.42 990.94 991.41 991.99 992.72 993.79 994.89 995.80 996.85 997.81 998.86 999.75 1000.61 1001.63 1002.64 1003.52 1004.42 1005.33 1006.23 1006.92 1007.54 1008.23 1008.67 1009.11 1009.63 1009.97 1010.18
1005.16 1005.25 1004.22 1003.67 1003.00 1002.90 1001.33 999.99 999.24 998.20 996.85 995.32 994.34 993.16 992.07 990.94 990.51 990.96 990.30 990.61 991.33 992.26 993.16 994.20 995.04 996.16 997.14 998.18 999.13 1000.09 1000.92 1001.89 1002.87 1004.01 1004.88 1005.62 1006.41 1007.25 1007.88 1008.51 1009.30 1009.50 1009.59 1009.95
Thickness
5664 5655 5663 5677 5691 5695 5685 5673 5681 5706 5714 5704 5703 5707 5733 5745 5742 5746 5754 5754 5760 5756 5759 5754 5748 5743 5729 5717 5708 5702 5693 5687 5679 5675 5669 5664 5661 5659 5655 5649 5642 5636 5630 5625
5656 5671 5690 5693 5688 5682 5676 5673 5684 5707 5711 5699 5705 5707 5731 5742 5746 5749 5753 5757 5754 5749 5747 5748 5742 5733 5726 5713 5704 5698 5690 5682 5678 5674 5669 5664 5660 5657 5652 5646 5639 5634 5628 5623
5671 5705 5693 5687 5685 5672 5676 5674 5681 5691 5699 5701 5698 5703 5721 5747 5747 5754 5758 5762 5758 5756 5746 5741 5735 5729 5715 5707 5702 5694 5686 5680 5677 5672 5666 5661 5658 5654 5648 5642 5637 5631 5627 5623
5667 5689 5686 5682 5680 5683 5668 5693 5695 5691 5678 5661 5695 5662 5709 5725 5733 5744 5753 5757 5758 5753 5746 5739 5730 5716 5710 5705 5699 5690 5683 5679 5675 5669 5662 5656 5650 5646 5641 5637 5632 5628 5627 5622
5673 5684 5677 5678 5691 5691 5686 5699 5688 5685 5675 5672 5682 5658 5702 5714 5721 5734 5748 5760 5752 5749 5742 5731 5722 5712 5706 5700 5692 5686 5680 5675 5670 5665 5659 5654 5649 5644 5638 5633 5630 5625 5624 5620
5674 5692 5689 5704 5700 5698 5696 5684 5676 5671 5661 5646 5685 5664 5688 5707 5725 5742 5758 5755 5746 5742 5731 5720 5714 5707 5700 5694 5687 5682 5676 5671 5665 5661 5656 5653 5648 5642 5635 5630 5627 5624 5621 5617
5653 5663 5685 5694 5675 5678 5673 5650 5619 5620 5624 5637 5696 5671 5710 5725 5736 5747 5752 5748 5740 5732 5727 5721 5712 5702 5695 5689 5683 5678 5673 5667 5662 5659 5656 5652 5646 5640 5633 5628 5625 5622 5619 5616
5639 5638 5671 5690 5681 5672 5669 5665 5629 5618 5626 5656 5690 5675 5716 5744 5751 5753 5754 5747 5738 5729 5724 5718 5710 5701 5695 5688 5681 5677 5671 5664 5661 5658 5655 5651 5646 5638 5632 5629 5627 5623 5620 5618
5633 5644 5684 5686 5689 5686 5666 5656 5672 5655 5666 5658 5674 5706 5731 5745 5744 5743 5741 5741 5732 5729 5723 5716 5705 5698 5693 5686 5681 5677 5669 5664 5661 5658 5655 5649 5645 5638 5633 5631 5627 5623 5622 5621
5643 5633 5673 5690 5688 5693 5677 5672 5649 5642 5639 5644 5669 5690 5698 5731 5736 5735 5734 5732 5729 5723 5717 5711 5702 5696 5693 5687 5682 5676 5669 5664 5662 5659 5654 5649 5644 5639 5635 5633 5628 5625 5623 5624
5633 5635 5658 5673 5677 5678 5664 5664 5667 5668 5658 5642 5651 5677 5717 5731 5735 5734 5734 5732 5729 5724 5718 5709 5702 5698 5694 5687 5681 5675 5668 5665 5662 5658 5654 5650 5644 5640 5637 5634 5629 5627 5626 5625
5603 5621 5636 5665 5689 5697 5687 5677 5682 5674 5655 5671 5667 5688 5736 5737 5741 5745 5739 5734 5728 5725 5717 5709 5703 5697 5690 5685 5680 5674 5669 5666 5663 5660 5654 5650 5646 5641 5636 5635 5632 5630 5629 5630
5579 5607 5624 5635 5663 5680 5684 5694 5696 5681 5668 5664 5670 5697 5733 5736 5737 5741 5736 5733 5728 5722 5712 5706 5701 5697 5690 5685 5680 5676 5672 5669 5665 5661 5656 5650 5647 5641 5636 5635 5634 5633 5632 5631
5567 5582 5626 5649 5673 5687 5681 5687 5684 5684 5672 5686 5693 5710 5725 5730 5734 5735 5733 5730 5726 5722 5715 5711 5703 5698 5694 5688 5683 5679 5674 5671 5667 5661 5657 5652 5648 5642 5638 5636 5635 5636 5635 5633
5550 5564 5607 5645 5668 5681 5690 5690 5691 5688 5699 5685 5712 5706 5722 5728 5733 5739 5737 5728 5724 5718 5715 5713 5706 5699 5695 5688 5685 5682 5677 5672 5668 5662 5658 5654 5650 5645 5640 5638 5638 5638 5636 5635
5540 5555 5589 5628 5661 5674 5671 5685 5696 5702 5703 5705 5707 5711 5738 5744 5744 5734 5733 5732 5729 5724 5722 5718 5711 5704 5699 5694 5689 5685 5679 5675 5671 5665 5661 5657 5653 5649 5645 5642 5640 5639 5637 5635
5537 5547 5573 5608 5653 5658 5640 5681 5687 5702 5715 5720 5699 5724 5733 5734 5739 5738 5732 5737 5739 5733 5728 5723 5717 5712 5707 5701 5696 5688 5683 5678 5673 5668 5664 5660 5656 5653 5648 5645 5642 5639 5637 5637
5535 5542 5557 5577 5623 5609 5693 5705 5706 5701 5719 5726 5729 5736 5744 5747 5752 5752 5752 5748 5743 5738 5734 5729 5725 5718 5713 5708 5700 5693 5687 5682 5676 5670 5667 5663 5660 5656 5652 5649 5645 5642 5638 5636
5541 5538 5548 5564 5597 5660 5686 5703 5702 5693 5705 5729 5733 5740 5746 5752 5744 5742 5752 5756 5758 5752 5748 5741 5734 5726 5717 5712 5705 5697 5689 5685 5679 5675 5672 5667 5664 5659 5655 5651 5648 5645 5643 5640
5556 5549 5553 5571 5586 5624 5655 5681 5717 5720 5697 5732 5736 5733 5739 5741 5723 5731 5752 5757 5755 5753 5750 5743 5736 5729 5721 5716 5709 5701 5692 5688 5684 5681 5679 5674 5669 5664 5659 5655 5651 5649 5647 5645
5531 5531 5541 5558 5576 5622 5629 5660 5693 5681 5689 5704 5726 5741 5736 5740 5755 5764 5764 5762 5763 5761 5753 5745 5738 5733 5729 5720 5712 5704 5697 5693 5693 5688 5683 5679 5674 5670 5666 5660 5657 5653 5649 5647
5517 5536 5544 5559 5580 5610 5628 5657 5655 5649 5676 5696 5716 5737 5744 5760 5761 5760 5765 5765 5763 5756 5749 5745 5737 5735 5731 5725 5717 5707 5703 5703 5697 5691 5685 5680 5676 5675 5670 5665 5660 5656 5652 5648
5514 5516 5529 5551 5585 5596 5606 5619 5630 5645 5661 5686 5704 5722 5737 5754 5755 5761 5762 5763 5765 5763 5760 5753 5743 5734 5731 5728 5724 5714 5710 5704 5699 5693 5687 5682 5679 5677 5673 5668 5664 5659 5656 5653
5504 5516 5528 5546 5586 5595 5603 5617 5630 5642 5657 5680 5704 5720 5737 5750 5759 5763 5767 5764 5763 5763 5756 5753 5744 5735 5730 5729 5727 5725 5715 5709 5703 5696 5690 5685 5681 5676 5674 5673 5669 5666 5661 5658
5486 5502 5518 5542 5572 5586 5604 5612 5625 5641 5659 5681 5702 5720 5739 5754 5758 5765 5765 5766 5766 5765 5760 5755 5749 5742 5736 5733 5728 5724 5718 5711 5705 5699 5693 5688 5685 5682 5678 5676 5674 5671 5670 5669
5491 5501 5520 5533 5560 5556 5580 5602 5619 5637 5657 5679 5695 5715 5732 5747 5758 5757 5767 5771 5768 5763 5761 5755 5751 5744 5739 5735 5730 5725 5721 5716 5709 5701 5696 5692 5688 5684 5681 5678 5672 5669 5671 5669